User: anonymous   Login
Location: *
(48.7358°N, 0.3111°E)
Time: 15:32:00
(UTC+00:00)
Language:

ATLAS 2AS CENTAUR R/B - Orbit

View from above orbital plane
View from above orbital plane
View from above satellite
View from above satellite

Ground track
Ground track

The orbit data is extracted from the following two-line orbital elements,

1 28096U 03054B   19343.72260911 0.00000000  00000-0  00000-0 0    08
2 28096  63.6833 289.1268 0240258 235.8897 124.1103 13.40856516    06
Epoch (UTC): 09 December 2019 17:20:33
Eccentricity: 0.0240258
inclination: 63.6833°
perigee height: 926 km
apogee height: 1286 km
right ascension of ascending node: 289.1268°
argument of perigee: 235.8897°
revolutions per day: 13.40856516
mean anomaly at epoch: 124.1103°
orbit number at epoch: 0

The dashed part of the orbit path shows where the satellite is in the earth's shadow,  

DLR